| time (UTC) | temp F | wind direction | speed MPH | gust MPH | rain 1hr in | rain 24hr in | rain mn in | humidity % | barometer mb |
| 20260902004517 | 66 | 330 | 0.0 | 0.0 | 0.00 | 0.00 | 0.00 | 57 | 1013.5 |
| 20260902003024 | 68 | 330 | 0.0 | 1.0 | 0.00 | 0.00 | 0.00 | 56 | 1013.5 |
| 20260902001518 | 69 | 330 | 0.0 | 3.0 | 0.00 | 0.00 | 0.00 | 57 | 1013.5 |
| 20260902000015 | 70 | 330 | 0.0 | 2.0 | 0.00 | 0.00 | 0.00 | 55 | 1013.4 |
| 20260901234521 | 71 | 330 | 0.0 | 3.0 | 0.00 | 0.00 | 0.00 | 52 | 1013.4 |
| 20260901233024 | 72 | 296 | 2.0 | 5.0 | 0.00 | 0.00 | 0.00 | 47 | 1013.4 |
| 20260901231522 | 73 | 49 | 0.0 | 4.0 | 0.00 | 0.00 | 0.00 | 49 | 1013.5 |
| 20260901230023 | 74 | 285 | 2.0 | 7.0 | 0.00 | 0.00 | 0.00 | 49 | 1013.5 |
| 20260901224517 | 74 | 327 | 1.0 | 3.0 | 0.00 | 0.00 | 0.00 | 51 | 1013.6 |
| 20260901223024 | 74 | 327 | 0.0 | 5.0 | 0.00 | 0.00 | 0.00 | 50 | 1013.6 |
| 20260901221525 | 75 | 252 | 1.0 | 6.0 | 0.00 | 0.00 | 0.00 | 46 | 1013.6 |
| 20260901220024 | 76 | 311 | 2.0 | 9.0 | 0.00 | 0.00 | 0.00 | 43 | 1013.5 |
| 20260901214524 | 76 | 47 | 2.0 | 7.0 | 0.00 | 0.00 | 0.00 | 44 | 1013.5 |
| 20260901213018 | 76 | 338 | 2.0 | 6.0 | 0.00 | 0.00 | 0.00 | 46 | 1013.4 |
| 20260901211527 | 77 | 34 | 1.0 | 5.0 | 0.00 | 0.00 | 0.00 | 43 | 1013.4 |
| 20260901210029 | 77 | 340 | 2.0 | 7.0 | 0.00 | 0.00 | 0.00 | 44 | 1013.5 |
| 20260901204526 | 78 | 306 | 2.0 | 12.0 | 0.00 | 0.00 | 0.00 | 41 | 1013.4 |
| 20260901203028 | 77 | 60 | 3.0 | 12.0 | 0.00 | 0.00 | 0.00 | 41 | 1013.4 |
| 20260901201520 | 78 | 147 | 2.0 | 8.0 | 0.00 | 0.00 | 0.00 | 42 | 1013.5 |
| 20260901200026 | 78 | 360 | 4.0 | 12.0 | 0.00 | 0.00 | 0.00 | 45 | 1013.5 |
| 20260901194531 | 77 | 166 | 2.0 | 9.0 | 0.00 | 0.00 | 0.00 | 42 | 1013.6 |
| 20260901193012 | 76 | 325 | 1.0 | 9.0 | 0.00 | 0.00 | 0.00 | 45 | 1013.6 |
| 20260901191546 | 77 | 340 | 2.0 | 11.0 | 0.00 | 0.00 | 0.00 | 42 | 1013.6 |
| 20260901190024 | 77 | 180 | 1.0 | 9.0 | 0.00 | 0.00 | 0.00 | 44 | 1013.6 |
| 20260901184518 | 78 | 63 | 1.0 | 8.0 | 0.00 | 0.00 | 0.00 | 45 | 1013.7 |
| 20260901183024 | 77 | 205 | 3.0 | 10.0 | 0.00 | 0.00 | 0.00 | 45 | 1013.8 |
| 20260901181516 | 77 | 326 | 2.0 | 8.0 | 0.00 | 0.00 | 0.00 | 44 | 1013.9 |
| 20260901180023 | 77 | 202 | 3.0 | 9.0 | 0.00 | 0.00 | 0.00 | 44 | 1014.0 |
| 20260901174523 | 77 | 184 | 2.0 | 8.0 | 0.00 | 0.00 | 0.00 | 47 | 1014.0 |
| 20260901173025 | 76 | 38 | 2.0 | 6.0 | 0.00 | 0.00 | 0.00 | 47 | 1014.2 |
| 20260901171525 | 76 | 278 | 1.0 | 9.0 | 0.00 | 0.00 | 0.00 | 45 | 1014.1 |
| 20260901170017 | 76 | 275 | 2.0 | 10.0 | 0.00 | 0.00 | 0.00 | 46 | 1014.2 |
| 20260901164538 | 76 | 153 | 2.0 | 14.0 | 0.00 | 0.00 | 0.00 | 47 | 1014.4 |
| 20260901163025 | 74 | 248 | 2.0 | 9.0 | 0.00 | 0.00 | 0.00 | 47 | 1014.3 |
| 20260901161546 | 74 | 360 | 3.0 | 13.0 | 0.00 | 0.00 | 0.00 | 47 | 1014.2 |
| 20260901160027 | 73 | 360 | 1.0 | 8.0 | 0.00 | 0.00 | 0.00 | 52 | 1014.2 |
| 20260901154520 | 73 | 184 | 2.0 | 8.0 | 0.00 | 0.00 | 0.00 | 51 | 1014.3 |
| 20260901153027 | 72 | 157 | 1.0 | 6.0 | 0.00 | 0.00 | 0.00 | 52 | 1014.4 |
| 20260901151525 | 71 | 97 | 2.0 | 8.0 | 0.00 | 0.00 | 0.00 | 53 | 1014.4 |
| 20260901150036 | 70 | 146 | 2.0 | 7.0 | 0.00 | 0.00 | 0.00 | 56 | 1014.2 |
| 20260901144536 | 68 | 146 | 2.0 | 6.0 | 0.00 | 0.00 | 0.00 | 57 | 1014.2 |
| 20260901143024 | 67 | 180 | 1.0 | 6.0 | 0.00 | 0.00 | 0.00 | 59 | 1014.2 |
| 20260901141529 | 67 | 173 | 2.0 | 6.0 | 0.00 | 0.00 | 0.00 | 59 | 1014.1 |
| 20260901140028 | 65 | 352 | 0.0 | 4.0 | 0.00 | 0.00 | 0.00 | 61 | 1014.0 |
| 20260901134527 | 64 | 175 | 0.0 | 3.0 | 0.00 | 0.00 | 0.00 | 62 | 1014.1 |
| 20260901133029 | 61 | 176 | 0.0 | 2.0 | 0.00 | 0.00 | 0.00 | 65 | 1014.0 |
| 20260901131527 | 58 | 176 | 0.0 | 3.0 | 0.00 | 0.00 | 0.00 | 70 | 1013.8 |
| 20260901130031 | 56 | 171 | 0.0 | 2.0 | 0.00 | 0.00 | 0.00 | 72 | 1013.8 |
| 20260901124530 | 55 | 170 | 1.0 | 2.0 | 0.00 | 0.00 | 0.00 | 73 | 1013.8 |
| 20260901123032 | 54 | 168 | 0.0 | 2.0 | 0.00 | 0.00 | 0.00 | 72 | 1013.9 |
| 20260901121529 | 54 | 168 | 0.0 | 6.0 | 0.00 | 0.00 | 0.00 | 73 | 1013.8 |
| 20260901120030 | 53 | 161 | 0.0 | 2.0 | 0.00 | 0.00 | 0.00 | 73 | 1013.8 |
| 20260901114536 | 53 | 162 | 0.0 | 0.0 | 0.00 | 0.00 | 0.00 | 71 | 1013.6 |
| 20260901113032 | 53 | 360 | 0.0 | 0.0 | 0.00 | 0.00 | 0.00 | 71 | 1013.4 |
| 20260901111530 | 53 | 162 | 0.0 | 0.0 | 0.00 | 0.00 | 0.00 | 70 | 1013.2 |
| 20260901110031 | 53 | 162 | 0.0 | 0.0 | 0.00 | 0.00 | 0.00 | 70 | 1013.2 |
| 20260901104532 | 54 | 162 | 0.0 | 0.0 | 0.00 | 0.00 | 0.00 | 70 | 1013.1 |
| 20260901103010 | 54 | 360 | 0.0 | 0.0 | 0.00 | 0.00 | 0.00 | 69 | 1012.9 |
| 20260901101513 | 54 | 162 | 0.0 | 0.0 | 0.00 | 0.00 | 0.00 | 69 | 1012.8 |
| 20260901100024 | 54 | 162 | 0.0 | 0.0 | 0.00 | 0.00 | 0.00 | 68 | 1012.8 |
| 20260901094537 | 54 | 162 | 0.0 | 0.0 | 0.00 | 0.00 | 0.00 | 68 | 1012.9 |
| 20260901093033 | 54 | 163 | 0.0 | 0.0 | 0.00 | 0.00 | 0.00 | 68 | 1012.8 |
| 20260901091516 | 54 | 360 | 0.0 | 0.0 | 0.00 | 0.00 | 0.00 | 68 | 1012.7 |
| 20260901090022 | 55 | 360 | 0.0 | 0.0 | 0.00 | 0.00 | 0.00 | 67 | 1012.8 |
| 20260901084525 | 55 | 360 | 0.0 | 0.0 | 0.00 | 0.00 | 0.00 | 68 | 1012.8 |
| 20260901083030 | 56 | 161 | 0.0 | 0.0 | 0.00 | 0.00 | 0.00 | 67 | 1012.7 |
| 20260901081533 | 56 | 161 | 0.0 | 0.0 | 0.00 | 0.00 | 0.00 | 67 | 1012.7 |
| 20260901080018 | 56 | 161 | 0.0 | 0.0 | 0.00 | 0.00 | 0.00 | 66 | 1012.7 |
| 20260901074520 | 57 | 161 | 0.0 | 0.0 | 0.00 | 0.01 | 0.00 | 66 | 1012.8 |
| 20260901073029 | 57 | 161 | 0.0 | 0.0 | 0.00 | 0.11 | 0.00 | 65 | 1012.8 |
| 20260901071532 | 57 | 161 | 0.0 | 0.0 | 0.00 | 0.17 | 0.00 | 65 | 1012.8 |
| 20260901070031 | 57 | 161 | 0.0 | 0.0 | 0.00 | 0.18 | 0.00 | 65 | 1012.7 |
| 20260901064521 | 58 | 161 | 0.0 | 0.0 | 0.00 | 0.18 | 0.00 | 64 | 1012.7 |
| 20260901063027 | 58 | 161 | 0.0 | 0.0 | 0.00 | 0.18 | 0.00 | 62 | 1012.6 |
| 20260901061502 | 58 | 161 | 0.0 | 1.0 | 0.00 | 0.18 | 0.00 | 62 | 1012.6 |
| 20260901060006 | 59 | 161 | 0.0 | 2.0 | 0.00 | 0.18 | 0.00 | 62 | 1012.3 |
| 20260901054510 | 59 | 161 | 0.0 | 2.0 | 0.00 | 0.18 | 0.00 | 62 | 1012.2 |
| 20260901053020 | 59 | 161 | 1.0 | 5.0 | 0.00 | 0.21 | 0.00 | 62 | 1012.0 |
| 20260901051502 | 60 | 163 | 0.0 | 4.0 | 0.00 | 0.24 | 0.00 | 63 | 1012.0 |
| 20260901050007 | 61 | 163 | 0.0 | 4.0 | 0.00 | 0.24 | 0.00 | 61 | 1011.9 |
| 20260901044513 | 62 | 163 | 0.0 | 2.0 | 0.00 | 0.24 | 0.24 | 58 | 1011.4 |
| 20260901043016 | 62 | 163 | 1.0 | 5.0 | 0.00 | 0.24 | 0.24 | 56 | 1011.4 |
| 20260901041527 | 62 | 164 | 0.0 | 5.0 | 0.00 | 0.24 | 0.24 | 56 | 1011.3 |
| 20260901040002 | 63 | 164 | 0.0 | 4.0 | 0.00 | 0.24 | 0.24 | 55 | 1011.4 |
| 20260901034506 | 63 | 165 | 1.0 | 4.0 | 0.00 | 0.24 | 0.24 | 56 | 1011.2 |
| 20260901033036 | 62 | 165 | 0.0 | 2.0 | 0.00 | 0.24 | 0.24 | 57 | 1011.3 |
| 20260901031517 | 63 | 165 | 0.0 | 2.0 | 0.00 | 0.24 | 0.24 | 56 | 1011.4 |
| 20260901030034 | 64 | 165 | 0.0 | 2.0 | 0.00 | 0.24 | 0.24 | 55 | 1011.3 |
| 20260901024503 | 64 | 165 | 0.0 | 2.0 | 0.00 | 0.24 | 0.24 | 55 | 1011.3 |
| 20260901023009 | 63 | 165 | 0.0 | 1.0 | 0.00 | 0.24 | 0.24 | 55 | 1011.3 |
| 20260901021517 | 64 | 165 | 0.0 | 0.0 | 0.00 | 0.24 | 0.24 | 55 | 1011.2 |
| 20260901020019 | 65 | 165 | 0.0 | 0.0 | 0.00 | 0.24 | 0.24 | 53 | 1011.1 |
| 20260901014526 | 66 | 165 | 0.0 | 0.0 | 0.00 | 0.24 | 0.24 | 53 | 1010.9 |
| 20260901013008 | 66 | 165 | 0.0 | 0.0 | 0.00 | 0.24 | 0.24 | 52 | 1010.8 |
| 20260901011510 | 67 | 165 | 0.0 | 0.0 | 0.00 | 0.24 | 0.24 | 51 | 1010.7 |
| 20260901010019 | 69 | 165 | 0.0 | 0.0 | 0.00 | 0.24 | 0.24 | 50 | 1010.7 |